When you browse on this site, cookies collect data to enhance your experience and personalize the content and advertising you see.
Visit our Privacy Policy to learn more. By continuing to use the site, you agree to this use of cookies and data.
  • In Spain
  • List of Countries
  • For 7 days
  • Water Temperature
  • Satellite Maps
  • Weather Map
  • Weather Widgets
  • user-avatar
    Login

    Hourly Weather Albany

    Today, 18 February, Monday

    Time Temperature Precipitation Wind Pressure Humidity
    00:00 +15°C° 0 mm 2 mps 761 mmHg 85%
    01:00 +14°C° 0 mm 2 mps 760 mmHg 86%
    02:00 +14°C° 0 mm 2 mps 760 mmHg 86%
    03:00 +14°C° 0 mm 2 mps 760 mmHg 87%
    04:00 +14°C° 0 mm 2 mps 760 mmHg 87%
    05:00 +14°C° 0 mm 2 mps 760 mmHg 88%
    06:00 +15°C° 0 mm 2 mps 760 mmHg 81%
    07:00 +17°C° 0 mm 2 mps 760 mmHg 74%
    08:00 +18°C° 0 mm 3 mps 761 mmHg 66%
    09:00 +19°C° 0 mm 4 mps 760 mmHg 62%
    10:00 +21°C° 0 mm 4 mps 760 mmHg 57%
    11:00 +22°C° 0 mm 4 mps 760 mmHg 53%
    12:00 +22°C° 0 mm 4 mps 760 mmHg 52%
    13:00 +23°C° 0 mm 5 mps 759 mmHg 51%
    14:00 +23°C° 0 mm 5 mps 759 mmHg 49%
    15:00 +23°C° 0 mm 5 mps 759 mmHg 53%
    16:00 +22°C° 0 mm 5 mps 759 mmHg 56%
    17:00 +21°C° 0 mm 6 mps 759 mmHg 60%
    18:00 +19°C° 0 mm 5 mps 759 mmHg 67%
    19:00 +17°C° 0 mm 5 mps 759 mmHg 73%
    20:00 +15°C° 0 mm 5 mps 759 mmHg 79%
    21:00 +15°C° 0 mm 5 mps 759 mmHg 81%
    22:00 +15°C° 0 mm 5 mps 759 mmHg 83%
    23:00 +15°C° 0 mm 4 mps 760 mmHg 85%

    Tomorrow, 19 February, Tuesday

    Time Temperature Precipitation Wind Pressure Humidity
    00:00 +15°C° 0 mm 4 mps 759 mmHg 86%
    01:00 +14°C° 0 mm 4 mps 759 mmHg 87%
    02:00 +14°C° 0 mm 4 mps 759 mmHg 88%
    03:00 +14°C° 0 mm 4 mps 759 mmHg 89%
    04:00 +14°C° 0 mm 3 mps 759 mmHg 90%
    05:00 +14°C° 0 mm 3 mps 759 mmHg 91%
    06:00 +16°C° 0 mm 3 mps 759 mmHg 85%
    07:00 +18°C° 0 mm 3 mps 760 mmHg 78%
    08:00 +19°C° 0 mm 3 mps 760 mmHg 72%
    09:00 +21°C° 0 mm 4 mps 760 mmHg 66%
    10:00 +22°C° 0 mm 4 mps 760 mmHg 59%
    11:00 +25°C° 0 mm 4 mps 759 mmHg 53%
    12:00 +25°C° 0 mm 5 mps 759 mmHg 53%
    13:00 +25°C° 0 mm 5 mps 759 mmHg 53%
    14:00 +26°C° 0 mm 6 mps 758 mmHg 54%
    15:00 +23°C° 0 mm 6 mps 758 mmHg 57%
    16:00 +22°C° 0 mm 6 mps 758 mmHg 61%
    17:00 +21°C° 0 mm 6 mps 758 mmHg 65%
    18:00 +20°C° 0 mm 6 mps 759 mmHg 70%
    19:00 +19°C° 0 mm 6 mps 759 mmHg 76%
    20:00 +16°C° 0 mm 5 mps 759 mmHg 82%
    21:00 +16°C° 0 mm 5 mps 759 mmHg 83%
    22:00 +16°C° 0 mm 5 mps 760 mmHg 84%
    23:00 +16°C° 0 mm 5 mps 760 mmHg 85%

    Day after tomorrow, 20 February, Wednesday

    Time Temperature Precipitation Wind Pressure Humidity
    00:00 +16°C° 0 mm 5 mps 759 mmHg 85%
    01:00 +16°C° 0 mm 5 mps 759 mmHg 86%
    02:00 +16°C° 0 mm 5 mps 759 mmHg 87%
    03:00 +16°C° 0 mm 5 mps 759 mmHg 88%
    04:00 +16°C° 0 mm 5 mps 759 mmHg 88%
    05:00 +16°C° 0 mm 5 mps 758 mmHg 89%
    06:00 +17°C° 0 mm 5 mps 758 mmHg 84%
    07:00 +19°C° 0 mm 6 mps 758 mmHg 79%
    08:00 +20°C° 0 mm 6 mps 758 mmHg 74%
    09:00 +22°C° 0 mm 6 mps 758 mmHg 70%
    10:00 +23°C° 0 mm 6 mps 757 mmHg 66%
    11:00 +24°C° 0 mm 6 mps 757 mmHg 62%
    12:00 +26°C° 0 mm 6 mps 756 mmHg 58%
    13:00 +28°C° 0 mm 6 mps 755 mmHg 53%
    14:00 +29°C° 0 mm 6 mps 755 mmHg 49%
    15:00 +28°C° 0 mm 6 mps 754 mmHg 52%
    16:00 +27°C° 0 mm 6 mps 754 mmHg 55%
    17:00 +27°C° 0 mm 7 mps 753 mmHg 58%
    18:00 +24°C° 0 mm 7 mps 753 mmHg 67%
    19:00 +22°C° 0 mm 6 mps 753 mmHg 75%
    20:00 +20°C° 0 mm 6 mps 753 mmHg 84%
    21:00 +20°C° 0 mm 5 mps 753 mmHg 86%
    22:00 +20°C° 0 mm 5 mps 753 mmHg 87%
    23:00 +20°C° 0 mm 4 mps 753 mmHg 89%

    21 February, Thursday

    Time Temperature Precipitation Wind Pressure Humidity
    00:00 +20°C° 0 mm 3 mps 753 mmHg 90%
    01:00 +20°C° 0 mm 3 mps 752 mmHg 91%
    02:00 +19°C° 0 mm 3 mps 751 mmHg 92%
    03:00 +19°C° 0 mm 3 mps 752 mmHg 94%
    04:00 +19°C° 0 mm 3 mps 752 mmHg 95%
    05:00 +19°C° 0 mm 3 mps 752 mmHg 96%
    06:00 +20°C° 0 mm 3 mps 752 mmHg 93%
    07:00 +20°C° 0 mm 4 mps 753 mmHg 89%
    08:00 +21°C° 0 mm 5 mps 753 mmHg 86%
    09:00 +22°C° 0 mm 5 mps 754 mmHg 79%
    10:00 +25°C° 0 mm 5 mps 754 mmHg 71%
    11:00 +26°C° 0 mm 5 mps 754 mmHg 63%
    12:00 +26°C° 0 mm 5 mps 754 mmHg 61%
    13:00 +27°C° 0 mm 6 mps 754 mmHg 59%
    14:00 +27°C° 0 mm 6 mps 754 mmHg 57%
    15:00 +26°C° 0 mm 6 mps 754 mmHg 61%
    16:00 +24°C° 0 mm 6 mps 754 mmHg 65%
    17:00 +23°C° 0 mm 6 mps 754 mmHg 69%
    18:00 +21°C° 0 mm 5 mps 755 mmHg 76%
    19:00 +20°C° 0 mm 4 mps 755 mmHg 84%
    20:00 +18°C° 0 mm 4 mps 756 mmHg 91%
    21:00 +18°C° 0 mm 3 mps 756 mmHg 92%
    22:00 +17°C° 0 mm 3 mps 756 mmHg 93%
    23:00 +17°C° 0 mm 2 mps 756 mmHg 93%

    22 February, Friday

    Time Temperature Precipitation Wind Pressure Humidity
    00:00 +17°C° 0 mm 2 mps 756 mmHg 93%
    01:00 +18°C° 0 mm 1 mps 756 mmHg 94%
    02:00 +16°C° 0 mm 1 mps 755 mmHg 94%
    03:00 +16°C° 0 mm 1 mps 755 mmHg 94%
    04:00 +16°C° 0 mm 1 mps 755 mmHg 95%
    05:00 +16°C° 0 mm 1 mps 755 mmHg 96%
    06:00 +18°C° 0 mm 1 mps 756 mmHg 88%
    07:00 +20°C° 0 mm 1 mps 756 mmHg 81%
    08:00 +22°C° 0 mm 1 mps 756 mmHg 73%
    09:00 +25°C° 0 mm 1 mps 756 mmHg 62%
    10:00 +28°C° 0 mm 1 mps 756 mmHg 52%
    11:00 +31°C° 0 mm 1 mps 755 mmHg 41%
    12:00 +31°C° 0 mm 2 mps 755 mmHg 42%
    13:00 +31°C° 0 mm 3 mps 754 mmHg 42%
    14:00 +32°C° 0 mm 4 mps 754 mmHg 43%
    15:00 +29°C° 0 mm 4 mps 753 mmHg 50%
    16:00 +27°C° 0 mm 4 mps 753 mmHg 57%
    17:00 +25°C° 0 mm 4 mps 753 mmHg 64%
    18:00 +22°C° 0 mm 3 mps 754 mmHg 69%
    19:00 +20°C° 0 mm 2 mps 755 mmHg 75%
    20:00 +20°C° 0 mm 1 mps 755 mmHg 81%
    21:00 +19°C° 0 mm 1 mps 756 mmHg 82%
    22:00 +19°C° 0 mm 1 mps 756 mmHg 83%
    23:00 +19°C° 0 mm 1 mps 756 mmHg 83%

    23 February, Saturday

    Time Temperature Precipitation Wind Pressure Humidity
    00:00 +19°C° 0 mm 1 mps 756 mmHg 83%
    01:00 +18°C° 0 mm 1 mps 756 mmHg 82%
    02:00 +18°C° 0 mm 1 mps 755 mmHg 81%
    03:00 +18°C° 0 mm 1 mps 755 mmHg 82%
    04:00 +17°C° 0 mm 2 mps 755 mmHg 83%
    05:00 +17°C° 0 mm 2 mps 756 mmHg 83%
    06:00 +19°C° 0 mm 2 mps 756 mmHg 77%
    07:00 +20°C° 0 mm 2 mps 756 mmHg 71%
    08:00 +22°C° 0 mm 3 mps 756 mmHg 65%
    09:00 +25°C° 0 mm 3 mps 756 mmHg 56%
    10:00 +28°C° 0 mm 2 mps 756 mmHg 48%
    11:00 +30°C° 0 mm 2 mps 756 mmHg 39%
    12:00 +31°C° 0 mm 3 mps 756 mmHg 39%
    13:00 +32°C° 0 mm 4 mps 755 mmHg 39%
    14:00 +33°C° 0 mm 5 mps 755 mmHg 39%
    15:00 +30°C° 0 mm 4 mps 755 mmHg 47%
    16:00 +28°C° 0 mm 4 mps 755 mmHg 56%
    17:00 +26°C° 0 mm 4 mps 755 mmHg 64%
    18:00 +24°C° 0 mm 3 mps 756 mmHg 72%
    19:00 +23°C° 0 mm 2 mps 757 mmHg 79%
    20:00 +20°C° 0 mm 2 mps 757 mmHg 86%
    21:00 +21°C° 0 mm 1 mps 757 mmHg 88%
    22:00 +20°C° 0 mm 1 mps 758 mmHg 90%
    23:00 +20°C° 0 mm 1 mps 758 mmHg 92%
    Show more